Milan, NH

11:55 PM EST on February 08, 2016 (GMT -0500)
Berlin Municipal

Weather History for KBML - December, 2011

Change the Weather History Date:

Wednesday, December 28, 2011

  Actual Average (KMWN) Record (KMWN)
Temperature  
Mean Temperature 28 °F -  
Max Temperature 45 °F 14 °F - (-1)
Min Temperature 12 °F 0 °F - (-1)
Degree Days  
Heating Degree Days 36    
Moisture  
Dew Point 25 °F    
Average Humidity 80    
Maximum Humidity 100    
Minimum Humidity 61    
Precipitation  
Precipitation 0.17 in - - ()
Sea Level Pressure  
Sea Level Pressure 29.29 in    
Wind  
Wind Speed 6 mph (West)    
Max Wind Speed 21 mph    
Max Gust Speed 29 mph    
Visibility 6 miles    
Events Fog , Rain , Snow    
Averages and records for this station are not official NWS values.
T = Trace of Precipitation, MM = Missing Value Source: NWS Daily Summary

Daily Weather History Graph

Daily Weather History Graph

Search for Another Location

Airport or City:

Trip Planner

Search our weather history database for the weather conditions in past years. The results will help you decide how hot, cold, wet, or windy it might be!

Date:

Astronomy

Dec. 28, 2011 Rise Set
Actual Time 7:20 AM EST 4:11 PM EST
Civil Twilight 6:47 AM EST 4:45 PM EST
Nautical Twilight 6:10 AM EST 5:22 PM EST
Astronomical Twilight 5:35 AM EST 5:57 PM EST
Moon 9:35 AM EST (12/28) 8:56 PM EST (12/28)
Length of Visible Light 9h 57m
Length of Day
8h 50m
Waxing Crescent, 18% of the Moon is Illuminated
Dec 28
Waxing Crescent
Jan 1
First Quarter
Jan 9
Full
Jan 16
Last Quarter
Jan 23
New

Hourly Weather History & Observations

Time (EST) Temp. Windchill Dew Point Humidity Pressure Visibility Wind Dir Wind Speed Gust Speed Precip Events Conditions
12:52 AM 42.1 °F 34.5 °F 39.0 °F 89% 29.26 in 6.0 mi SSE 15.0 mph - 0.06 in Rain Light Rain
1:52 AM 45.0 °F - 42.1 °F 90% 29.23 in 8.0 mi Calm Calm - 0.01 in Rain Light Rain
2:26 AM 42.8 °F - 41.0 °F 93% 29.21 in 2.5 mi Calm Calm - 0.06 in Rain Rain
2:31 AM 42.8 °F 41.1 °F 41.0 °F 93% 29.21 in 3.0 mi SE 3.5 mph - 0.07 in Rain Rain
2:48 AM 42.8 °F 40.1 °F 42.8 °F 100% 29.19 in 9.0 mi ESE 4.6 mph - 0.08 in Rain Light Rain
2:52 AM 44.1 °F 41.5 °F 42.1 °F 93% 29.22 in 10.0 mi East 4.6 mph - 0.08 in Rain Light Rain
3:23 AM 42.8 °F - 39.2 °F 87% 29.17 in 2.0 mi Calm Calm - 0.00 in   Overcast
3:27 AM 42.8 °F - 39.2 °F 87% 29.17 in 1.2 mi Calm Calm - 0.00 in   Overcast
3:37 AM 37.4 °F - 37.4 °F 100% 29.16 in 0.5 mi Calm Calm - 0.00 in Fog Fog
3:52 AM 37.9 °F - 37.0 °F 97% 29.20 in 0.5 mi Calm Calm - 0.00 in Fog Fog
4:19 AM 39.2 °F - 39.2 °F 100% 29.17 in 1.0 mi Calm Calm - N/A   Overcast
4:28 AM 37.4 °F - 35.6 °F 93% 29.16 in 0.5 mi Calm Calm - N/A Fog Fog
4:52 AM 36.0 °F - 36.0 °F 100% 29.20 in 0.5 mi Calm Calm - N/A Fog Fog
5:27 AM 37.4 °F - 35.6 °F 93% 29.17 in 1.0 mi Calm Calm - N/A   Overcast
5:33 AM 37.4 °F - 37.4 °F 100% 29.16 in 2.0 mi Calm Calm - N/A   Overcast
5:42 AM 37.4 °F 34.9 °F 37.4 °F 100% 29.17 in 5.0 mi Variable 3.5 mph - N/A   Overcast
5:52 AM 39.0 °F 34.8 °F 37.0 °F 93% 29.21 in 10.0 mi WSW 5.8 mph - N/A   Overcast
6:52 AM 39.9 °F 34.5 °F 37.0 °F 89% 29.21 in 10.0 mi SW 8.1 mph - N/A   Overcast
7:52 AM 41.0 °F 38.0 °F 36.0 °F 82% 29.21 in 9.0 mi SW 4.6 mph - 0.00 in Rain Light Rain
8:40 AM 41.0 °F 38.0 °F 33.8 °F 76% 29.19 in 10.0 mi Variable 4.6 mph - 0.01 in   Overcast
8:52 AM 41.0 °F - 33.1 °F 73% 29.22 in 10.0 mi Calm Calm - 0.01 in   Overcast
9:33 AM 39.2 °F 34.2 °F 33.8 °F 81% 29.19 in 10.0 mi West 6.9 mph - N/A   Overcast
9:52 AM 39.9 °F 35.1 °F 33.1 °F 77% 29.22 in 10.0 mi West 6.9 mph - N/A   Overcast
10:20 AM 39.2 °F 37.0 °F 32.0 °F 75% 29.19 in 10.0 mi Variable 3.5 mph - N/A   Overcast
10:52 AM 37.9 °F 34.4 °F 33.1 °F 83% 29.20 in 10.0 mi West 4.6 mph - N/A   Overcast
11:52 AM 36.0 °F 29.6 °F 30.9 °F 82% 29.20 in 10.0 mi West 8.1 mph 17.3 mph 0.01 in   Overcast
12:52 PM 36.0 °F 31.1 °F 28.0 °F 73% 29.22 in 9.0 mi West 5.8 mph - 0.00 in   Overcast
1:07 PM 35.6 °F 31.7 °F 26.6 °F 70% 29.19 in 10.0 mi Variable 4.6 mph 16.1 mph N/A   Overcast
1:18 PM 35.6 °F 29.9 °F 26.6 °F 70% 29.20 in 10.0 mi Variable 6.9 mph - N/A   Overcast
1:52 PM 34.0 °F 28.0 °F 27.0 °F 75% 29.24 in 2.5 mi Variable 6.9 mph 17.3 mph 0.00 in Snow Light Snow
1:59 PM 33.8 °F 28.6 °F 26.6 °F 75% 29.22 in 6.0 mi Variable 5.8 mph - 0.00 in Snow Light Snow
2:52 PM 30.9 °F 21.2 °F 21.0 °F 67% 29.29 in 10.0 mi NW 12.7 mph 25.3 mph 0.00 in Snow Light Snow
3:52 PM 27.0 °F 15.2 °F 15.1 °F 61% 29.33 in 10.0 mi WNW 15.0 mph 26.5 mph 0.00 in   Overcast
5:45 PM 19.4 °F 7.9 °F 8.6 °F 63% 29.37 in 9.0 mi WNW 10.4 mph 20.7 mph 0.00 in   Overcast
5:52 PM 19.0 °F 2.7 °F 8.1 °F 62% 29.42 in 10.0 mi NW 20.7 mph 28.8 mph 0.00 in   Overcast
6:52 PM 16.0 °F 4.4 °F 6.1 °F 65% 29.46 in 7.0 mi NW 9.2 mph 25.3 mph 0.00 in Snow Light Snow
7:03 PM 15.8 °F 2.7 °F 6.8 °F 68% 29.42 in 6.0 mi NW 11.5 mph 23.0 mph 0.00 in Snow Light Snow
7:23 PM 15.8 °F 1.4 °F 6.8 °F 68% 29.43 in 2.0 mi WNW 13.8 mph 24.2 mph 0.00 in Snow Light Snow
7:36 PM 15.8 °F 6.1 °F 6.8 °F 68% 29.43 in 3.0 mi Variable 6.9 mph 21.9 mph 0.00 in Snow Light Snow
7:44 PM 15.8 °F 2.7 °F 6.8 °F 68% 29.43 in 4.0 mi NNW 11.5 mph 19.6 mph 0.00 in Snow Light Snow
7:52 PM 14.0 °F 0.5 °F 6.1 °F 71% 29.48 in 3.0 mi NNW 11.5 mph - 0.00 in Snow Light Snow
8:27 PM 14.0 °F 0.5 °F 6.8 °F 73% 29.44 in 2.5 mi SW 11.5 mph 19.6 mph 0.00 in Snow Light Snow
8:43 PM 14.0 °F 1.2 °F 6.8 °F 73% 29.45 in 1.8 mi SW 10.4 mph 21.9 mph 0.00 in Snow Light Snow
8:50 PM 14.0 °F 2.9 °F 6.8 °F 73% 29.45 in 3.0 mi WSW 8.1 mph 17.3 mph 0.00 in Snow Light Snow
8:51 PM 14.0 °F 2.0 °F 6.1 °F 71% 29.50 in 3.0 mi West 9.2 mph 17.3 mph 0.00 in Snow Light Snow
9:52 PM 12.9 °F -0.9 °F 3.9 °F 67% 29.50 in 5.0 mi NW 11.5 mph 21.9 mph 0.00 in Snow Light Snow
11:18 PM 12.2 °F -0.2 °F 5.0 °F 73% 29.49 in 1.8 mi WNW 9.2 mph 19.6 mph 0.00 in Snow Light Snow
11:34 PM 12.2 °F 0.7 °F 5.0 °F 73% 29.50 in 2.0 mi WNW 8.1 mph 16.1 mph 0.00 in Snow Light Snow
11:52 PM 12.0 °F 2.7 °F 3.9 °F 70% 29.56 in 4.0 mi NW 5.8 mph - 0.00 in Snow Light Snow